Location: Molveno
(46.1500°N, 10.9667°E)
Time: 01:18:39
(UTC+00:00)

COSMOS 2428 - Pass Details

Date: 05 July 2020
Orbit: 844 x 859 km, 70.9° (Epoch: 11 August)

Event Time Altitude Azimuth Distance (km) Brightness Sun altitude
Rises 21:57:37 0° 226° (SW) 3,392 5.6 -18.6°
Reaches altitude 10° 22:00:11 10° 233° (SW) 2,460 4.9 -18.8°
Maximum altitude 22:05:32 43° 304° (NW) 1,169 3.8 -19.1°
Drops below altitude 10° 22:10:57 10° 16° (NNE) 2,478 5.9 -19.4°
Sets 22:13:33 0° 23° (NNE) 3,419 6.7 -19.5°
